Home   Weather   Dreieich   Past weeks

Flag for Germany Past Weather in Dreieich, Hesse, Germany — Yesterday and Last 2 Weeks

Now
61 °F

Clear.


Feels Like: 61 °F
Forecast: 62 / 79 °F
Wind: 8 mph from Northeast

Location: Frankfurt-M-Flughafen Airport

Current Time: Aug 31, 2016 at 6:33:57 AM

Latest Report: Aug 31, 2016 at 6:20 AM


Visibility: 10 mi

Pressure: 30.18 "Hg

Humidity: 55%

Dew Point: 45 °F

Location of DreieichLocation

Past Weather in Dreieich — Graph

°F

Dreieich Temperature Yesterday

Maximum temperature yesterday: 79 °F (at 4:20 PM)
Minimum temperature yesterday: 63 °F (at 5:50 AM)
Average temperature yesterday: 70 °F

High & Low Weather Summary for the Past Weeks

 TemperatureHumidityPressure
High95 °F (Aug 27, 3:20 PM)100% (Aug 19, 6:20 AM)30.39 "Hg (Aug 19, 6:20 AM)
Low52 °F (Aug 23, 6:20 AM)26% (Aug 27, 5:20 PM)29.80 "Hg (Aug 18, 1:50 PM)
Average70 °F64%30.06 "Hg
* Reported Aug 16 5:20 AM — Aug 31 5:20 AM, Dreieich, Weather by CustomWeather, © 2016

Note: Actual official high and low records may vary slightly from our data, if they occured in-between our weather recording intervals... More about our weather records

Advertising

Dreieich Weather History for the Previous 24 Hours

Scroll right to see more
 ConditionsComfort  
Time TempWeatherWind HumidityBarometerVisibility
5:20 AM
Wed, Aug 31
61 °FClear.8 mph55%30.18 "Hg10 mi
4:50 AM61 °FClear.10 mph59%30.18 "Hg10 mi
4:20 AM63 °FClear.10 mph56%30.18 "Hg10 mi
3:50 AM63 °FClear.10 mph56%30.18 "Hg10 mi
3:20 AM63 °FClear.12 mph56%30.18 "Hg10 mi
2:50 AM63 °FClear.9 mph56%30.18 "Hg10 mi
2:20 AM63 °FClear.10 mph56%30.18 "Hg10 mi
1:50 AM64 °FClear.10 mph52%30.18 "Hg10 mi
1:20 AM64 °FClear.12 mph52%30.18 "Hg10 mi
12:50 AM64 °FClear.10 mph52%30.21 "Hg10 mi
12:20 AM64 °FClear.9 mph52%30.21 "Hg10 mi
11:50 PM
Tue, Aug 30
66 °FClear.10 mph49%30.21 "Hg10 mi
11:20 PM66 °FClear.10 mph49%30.21 "Hg10 mi
10:50 PM68 °FClear.9 mph46%30.21 "Hg10 mi
10:20 PM68 °FClear.12 mph46%30.21 "Hg10 mi
9:50 PM70 °FClear.12 mph43%30.21 "Hg10 mi
9:20 PM72 °FClear.10 mph41%30.21 "Hg10 mi
8:50 PM73 °FSunny.10 mph38%30.21 "Hg10 mi
8:20 PM73 °FSunny.9 mph38%30.18 "Hg10 mi
7:50 PM75 °FSunny.9 mph36%30.18 "Hg10 mi
7:20 PM75 °FPassing clouds.9 mph39%30.18 "HgN/A
6:50 PM77 °FSunny.8 mph36%30.18 "Hg10 mi
6:20 PM77 °FPassing clouds.9 mph36%30.21 "HgN/A
5:50 PM77 °FPassing clouds.8 mph36%30.21 "HgN/A
5:20 PM77 °FPassing clouds.8 mph34%30.21 "HgN/A
4:50 PM77 °FPassing clouds.9 mph36%30.21 "HgN/A
4:20 PM79 °FPassing clouds.10 mph32%30.21 "HgN/A
3:50 PM77 °FPassing clouds.10 mph34%30.24 "HgN/A
3:20 PM77 °FPassing clouds.8 mph36%30.24 "HgN/A
2:50 PM75 °FPassing clouds.9 mph39%30.24 "HgN/A
2:20 PM75 °FPassing clouds.10 mph39%30.27 "HgN/A
1:50 PM73 °FPassing clouds.10 mph44%30.27 "HgN/A
1:20 PM73 °FPassing clouds.10 mph44%30.27 "HgN/A
12:50 PM72 °FScattered clouds.12 mph47%30.27 "HgN/A
12:20 PM73 °FScattered clouds.9 mph47%30.27 "HgN/A
11:50 AM72 °FScattered clouds.9 mph50%30.30 "HgN/A
11:20 AM72 °FScattered clouds.10 mph50%30.30 "HgN/A
10:50 AM70 °FPartly sunny.8 mph57%30.30 "HgN/A
10:20 AM68 °FPartly sunny.7 mph60%30.30 "HgN/A
9:50 AM68 °FPartly sunny.8 mph60%30.30 "HgN/A
9:20 AM64 °FPartly sunny.8 mph68%30.27 "HgN/A
8:50 AM64 °FPartly sunny.9 mph68%30.27 "HgN/A
8:20 AM63 °FPartly sunny.9 mph77%30.27 "HgN/A
7:50 AM63 °FSunny.8 mph77%30.27 "Hg10 mi
7:20 AM63 °FClear.7 mph77%30.27 "Hg10 mi
6:50 AM63 °FPassing clouds.9 mph77%30.24 "HgN/A
6:20 AM63 °FClear.9 mph77%30.24 "Hg10 mi
Weather by CustomWeather, © 2016

See weather overviewHow to use our weather pages